Location: Doschendorf
(50.0069°N, 11.0602°E)
Time: 21:11:58
(UTC+00:00)

Cosmos 2279 Rocket - Pass Details

Date: 17 November 2019
Orbit: 964 x 979 km, 82.9° (Epoch: 12 December)

Event Time Altitude Azimuth Distance (km) Brightness Sun altitude
Rises 18:24:06 0° 351° (N) 3,670 7.2 -27.8°
Reaches altitude 10° 18:26:37 10° 353° (N) 2,721 6.4 -28.2°
Enters shadow 18:31:42 59° 15° (NNE) 1,111 4.1 -29.0°
